This demonstration page uses our WeatherBlox Daily Observations layout. Learn more.

Left ArrowRight Arrow

Hourly Observations for October 31, 2020

Temp ( °F °C ) Dew Point ( °F °C ) Humidity (%) Winds ( mph kmh ) Pressure ( in mb ) Visibility ( mi km ) Precip ( " mm )
12:56 am 00:56 Clear 48 8.9 39 3.9 71 71 S 13 20 29.93 1013 10 16 0.00 0.00
1:56 am 01:56 Clear 48 8.9 39 3.9 71 71 SSW 13 20 29.90 1013 10 16 0.00 0.00
2:56 am 02:56 Clear 45 7.2 38 3.3 77 77 S 13 20 29.88 1012 10 16 0.00 0.00
3:56 am 03:56 Clear 43 6.1 38 3.3 82 82 S 10 17 29.86 1011 10 16 0.00 0.00
4:56 am 04:56 Clear 41 5 37 2.8 86 86 SSW 8 13 29.86 1011 10 16 0.00 0.00
5:56 am 05:56 Clear 41 5 37 2.8 86 86 S 10 17 29.84 1011 10 16 0.00 0.00
6:56 am 06:56 Clear 42 5.6 38 3.3 85 85 SSW 13 20 29.85 1011 10 16 0.00 0.00
7:56 am 07:56 Clear 42 5.6 38 3.3 85 85 SW 10 17 29.89 1012 10 16 0.00 0.00
8:56 am 08:56 Sunny 43 6.1 38 3.3 82 82 WSW 12 19 29.93 1013 10 16 0.00 0.00
9:56 am 09:56 Sunny 48 8.9 37 2.8 66 66 NW 10 17 29.95 1014 10 16 0.00 0.00
10:56 am 10:56 Sunny 57 13.9 35 1.7 44 44 NNW 24 39 29.96 1015 10 16 0.00 0.00
11:56 am 11:56 Sunny 62 16.7 32 0 32 32 NNW 22 35 29.99 1016 10 16 0.00 0.00
12:56 pm 12:56 Sunny 63 17.2 30 -1.1 29 29 NNW 22 35 30.01 1016 10 16 0.00 0.00
1:56 pm 13:56 Sunny 66 18.9 31 -0.6 27 27 NNW 24 39 30.03 1017 10 16 0.00 0.00
2:56 pm 14:56 Sunny 64 17.8 31 -0.6 29 29 NNW 23 37 30.05 1018 10 16 0.00 0.00
3:56 pm 15:56 Sunny 64 17.8 31 -0.6 29 29 NNW 17 28 30.08 1019 10 16 0.00 0.00
4:56 pm 16:56 Mostly Sunny 63 17.2 31 -0.6 30 30 NNW 18 30 30.12 1020 10 16 0.00 0.00
5:56 pm 17:56 Sunny 61 16.1 30 -1.1 31 31 NNW 24 39 30.16 1021 10 16 0.00 0.00
6:56 pm 18:56 Clear 57 13.9 32 0 39 39 NNW 16 26 30.22 1023 10 16 0.00 0.00
7:56 pm 19:56 Clear 52 11.1 31 -0.6 45 45 NNW 9 15 30.26 1025 10 16 0.00 0.00
8:56 pm 20:56 Clear 48 8.9 30 -1.1 50 50 NNW 8 13 30.30 1026 10 16 0.00 0.00
9:56 pm 21:56 Clear 45 7.2 29 -1.7 54 54 NW 9 15 30.33 1027 10 16 0.00 0.00
10:56 pm 22:56 Clear 45 7.2 26 -3.3 48 48 NNW 13 20 30.36 1028 10 16 0.00 0.00
11:56 pm 23:56 Clear 42 5.6 25 -3.9 51 51 NW 12 19 30.37 1029 10 16 0.00 0.00

Powered by AerisWeather